When you browse on this site, cookies collect data to enhance your experience and personalize the content and advertising you see.
Visit our Privacy Policy to learn more. By continuing to use the site, you agree to this use of cookies and data.
  • în România
  • Lista ţărilor
  • Pe 7 zile
  • Temperatura apei
  • Hartă satelitară
  • Meteo pe hartă
  • Widget-uri
  • user-avatar
    Intrare

    Meteo pe oră la Arredondo

    Astăzi, 16 Iulie, Marţi

    Timp Temperatura Precipitaţii Vânt Presiune Umiditate
    00:00 +13°C° 0 mm 1 m/s 711 mmHg 87%
    01:00 +12°C° 0 mm 1 m/s 711 mmHg 84%
    02:00 +12°C° 0 mm 1 m/s 710 mmHg 82%
    03:00 +12°C° 0 mm 1 m/s 710 mmHg 80%
    04:00 +13°C° 0 mm 1 m/s 710 mmHg 77%
    05:00 +13°C° 0 mm 1 m/s 710 mmHg 73%
    06:00 +15°C° 0 mm 1 m/s 711 mmHg 70%
    07:00 +18°C° 0 mm 1 m/s 711 mmHg 63%
    08:00 +20°C° 0 mm 1 m/s 711 mmHg 56%
    09:00 +22°C° 0 mm 1 m/s 711 mmHg 48%
    10:00 +23°C° 0 mm 2 m/s 711 mmHg 48%
    11:00 +24°C° 0 mm 2 m/s 711 mmHg 48%
    12:00 +25°C° 0 mm 2 m/s 711 mmHg 48%
    13:00 +25°C° 0 mm 3 m/s 711 mmHg 50%
    14:00 +25°C° 0 mm 3 m/s 711 mmHg 52%
    15:00 +24°C° 0 mm 3 m/s 710 mmHg 54%
    16:00 +23°C° 0 mm 2 m/s 710 mmHg 59%
    17:00 +21°C° 0 mm 2 m/s 710 mmHg 64%
    18:00 +20°C° 0 mm 2 m/s 710 mmHg 68%
    19:00 +19°C° 0 mm 1 m/s 710 mmHg 77%
    20:00 +18°C° 0 mm 1 m/s 710 mmHg 85%
    21:00 +14°C° 0 mm 0 m/s 710 mmHg 94%
    22:00 +14°C° 0 mm 0 m/s 710 mmHg 93%
    23:00 +15°C° 0 mm 1 m/s 710 mmHg 93%

    Mâine, 17 Iulie, Miercuri

    Timp Temperatura Precipitaţii Vânt Presiune Umiditate
    00:00 +15°C° 0 mm 1 m/s 710 mmHg 93%
    01:00 +14°C° 0 mm 1 m/s 710 mmHg 93%
    02:00 +14°C° 0 mm 1 m/s 710 mmHg 93%
    03:00 +14°C° 0 mm 1 m/s 709 mmHg 93%
    04:00 +14°C° 0 mm 1 m/s 709 mmHg 93%
    05:00 +15°C° 0 mm 1 m/s 709 mmHg 92%
    06:00 +15°C° 0 mm 1 m/s 709 mmHg 91%
    07:00 +18°C° 0 mm 1 m/s 710 mmHg 82%
    08:00 +20°C° 0 mm 1 m/s 710 mmHg 73%
    09:00 +21°C° 0 mm 2 m/s 711 mmHg 64%
    10:00 +21°C° 0 mm 2 m/s 711 mmHg 65%
    11:00 +21°C° 0 mm 2 m/s 710 mmHg 65%
    12:00 +21°C° 0 mm 2 m/s 710 mmHg 66%
    13:00 +21°C° 0 mm 2 m/s 710 mmHg 69%
    14:00 +20°C° 0 mm 3 m/s 710 mmHg 72%
    15:00 +20°C° 0 mm 3 m/s 710 mmHg 75%
    16:00 +19°C° 0 mm 2 m/s 710 mmHg 78%
    17:00 +19°C° 0 mm 2 m/s 710 mmHg 81%
    18:00 +18°C° 0 mm 2 m/s 710 mmHg 83%
    19:00 +17°C° 0 mm 2 m/s 711 mmHg 88%
    20:00 +16°C° 0 mm 1 m/s 711 mmHg 92%
    21:00 +15°C° 0 mm 1 m/s 711 mmHg 97%
    22:00 +15°C° 0 mm 1 m/s 711 mmHg 97%
    23:00 +14°C° 0 mm 1 m/s 711 mmHg 97%

    Poimâine, 18 Iulie, Joi

    Timp Temperatura Precipitaţii Vânt Presiune Umiditate
    00:00 +14°C° 0 mm 1 m/s 710 mmHg 97%
    01:00 +14°C° 0 mm 1 m/s 710 mmHg 97%
    02:00 +14°C° 0 mm 1 m/s 710 mmHg 97%
    03:00 +15°C° 0 mm 1 m/s 710 mmHg 97%
    04:00 +15°C° 0 mm 1 m/s 710 mmHg 97%
    05:00 +15°C° 0 mm 1 m/s 710 mmHg 96%
    06:00 +14°C° 0 mm 0 m/s 710 mmHg 96%
    07:00 +16°C° 0 mm 1 m/s 710 mmHg 90%
    08:00 +18°C° 0 mm 1 m/s 711 mmHg 85%
    09:00 +18°C° 0 mm 2 m/s 711 mmHg 79%
    10:00 +19°C° 0 mm 2 m/s 711 mmHg 75%
    11:00 +19°C° 0 mm 2 m/s 711 mmHg 70%
    12:00 +20°C° 0 mm 2 m/s 711 mmHg 66%
    13:00 +21°C° 0 mm 2 m/s 711 mmHg 62%
    14:00 +21°C° 0 mm 3 m/s 711 mmHg 58%
    15:00 +22°C° 0 mm 3 m/s 711 mmHg 54%
    16:00 +21°C° 0 mm 3 m/s 711 mmHg 57%
    17:00 +20°C° 0 mm 2 m/s 711 mmHg 60%
    18:00 +19°C° 0 mm 2 m/s 711 mmHg 64%
    19:00 +17°C° 0 mm 2 m/s 711 mmHg 74%
    20:00 +15°C° 0 mm 1 m/s 711 mmHg 84%
    21:00 +13°C° 0 mm 1 m/s 711 mmHg 94%
    22:00 +13°C° 0 mm 1 m/s 711 mmHg 92%
    23:00 +12°C° 0 mm 1 m/s 711 mmHg 90%

    19 Iulie, Vineri

    Timp Temperatura Precipitaţii Vânt Presiune Umiditate
    00:00 +12°C° 0 mm 1 m/s 710 mmHg 88%
    01:00 +12°C° 0 mm 1 m/s 710 mmHg 87%
    02:00 +12°C° 0 mm 1 m/s 710 mmHg 86%
    03:00 +12°C° 0 mm 1 m/s 710 mmHg 85%
    04:00 +13°C° 0 mm 1 m/s 710 mmHg 83%
    05:00 +13°C° 0 mm 1 m/s 710 mmHg 81%
    06:00 +14°C° 0 mm 1 m/s 710 mmHg 79%
    07:00 +18°C° 0 mm 1 m/s 710 mmHg 70%
    08:00 +20°C° 0 mm 1 m/s 710 mmHg 62%
    09:00 +23°C° 0 mm 1 m/s 711 mmHg 53%
    10:00 +24°C° 0 mm 1 m/s 710 mmHg 50%
    11:00 +26°C° 0 mm 2 m/s 710 mmHg 47%
    12:00 +27°C° 0 mm 2 m/s 710 mmHg 44%
    13:00 +27°C° 0 mm 2 m/s 710 mmHg 47%
    14:00 +27°C° 0 mm 2 m/s 709 mmHg 49%
    15:00 +27°C° 0 mm 3 m/s 709 mmHg 51%
    16:00 +26°C° 0 mm 2 m/s 708 mmHg 56%
    17:00 +25°C° 0 mm 2 m/s 708 mmHg 61%
    18:00 +23°C° 0 mm 2 m/s 708 mmHg 66%
    19:00 +20°C° 0 mm 2 m/s 708 mmHg 76%
    20:00 +19°C° 0 mm 1 m/s 708 mmHg 86%
    21:00 +14°C° 0 mm 0 m/s 708 mmHg 96%
    22:00 +14°C° 0 mm 0 m/s 708 mmHg 96%
    23:00 +15°C° 0 mm 1 m/s 708 mmHg 95%

    20 Iulie, Sâmbătă

    Timp Temperatura Precipitaţii Vânt Presiune Umiditate
    00:00 +15°C° 0 mm 1 m/s 707 mmHg 95%
    01:00 +15°C° 0.1 mm 1 m/s 707 mmHg 94%
    02:00 +15°C° 0.1 mm 1 m/s 707 mmHg 93%
    03:00 +15°C° 0.1 mm 1 m/s 707 mmHg 92%
    04:00 +15°C° 0 mm 1 m/s 707 mmHg 92%
    05:00 +15°C° 0 mm 1 m/s 707 mmHg 92%
    06:00 +15°C° 0 mm 1 m/s 708 mmHg 93%
    07:00 +18°C° 0 mm 1 m/s 708 mmHg 83%
    08:00 +19°C° 0 mm 2 m/s 709 mmHg 73%
    09:00 +21°C° 0 mm 2 m/s 709 mmHg 63%
    10:00 +21°C° 0 mm 2 m/s 710 mmHg 65%
    11:00 +21°C° 0 mm 3 m/s 710 mmHg 67%
    12:00 +21°C° 0 mm 3 m/s 710 mmHg 69%
    13:00 +21°C° 0.1 mm 3 m/s 710 mmHg 74%
    14:00 +20°C° 0.1 mm 3 m/s 710 mmHg 79%
    15:00 +19°C° 0.1 mm 2 m/s 710 mmHg 85%
    16:00 +18°C° 0 mm 2 m/s 710 mmHg 85%
    17:00 +18°C° 0 mm 2 m/s 711 mmHg 86%
    18:00 +17°C° 0 mm 2 m/s 711 mmHg 87%
    19:00 +17°C° 0 mm 2 m/s 711 mmHg 89%
    20:00 +16°C° 0 mm 1 m/s 712 mmHg 92%
    21:00 +16°C° 0 mm 1 m/s 712 mmHg 94%
    22:00 +15°C° 0 mm 1 m/s 712 mmHg 94%
    23:00 +15°C° 0 mm 1 m/s 712 mmHg 94%

    21 Iulie, Duminică

    Timp Temperatura Precipitaţii Vânt Presiune Umiditate
    00:00 +14°C° 0 mm 0 m/s 713 mmHg 95%
    01:00 +14°C° 0 mm 0 m/s 712 mmHg 95%
    02:00 +13°C° 0 mm 0 m/s 712 mmHg 96%
    03:00 +13°C° 0 mm 0 m/s 712 mmHg 96%
    04:00 +13°C° 0 mm 0 m/s 712 mmHg 95%
    05:00 +14°C° 0 mm 0 m/s 712 mmHg 94%
    06:00 +14°C° 0 mm 0 m/s 712 mmHg 92%
    07:00 +16°C° 0 mm 1 m/s 712 mmHg 88%
    08:00 +18°C° 0 mm 1 m/s 713 mmHg 85%
    09:00 +19°C° 0 mm 1 m/s 713 mmHg 81%
    10:00 +20°C° 0 mm 1 m/s 713 mmHg 77%
    11:00 +20°C° 0 mm 2 m/s 713 mmHg 73%
    12:00 +21°C° 0 mm 2 m/s 713 mmHg 69%
    13:00 +21°C° 0 mm 2 m/s 713 mmHg 68%
    14:00 +21°C° 0 mm 2 m/s 713 mmHg 68%
    15:00 +21°C° 0 mm 3 m/s 712 mmHg 67%
    16:00 +21°C° 0 mm 2 m/s 712 mmHg 70%
    17:00 +20°C° 0 mm 2 m/s 712 mmHg 73%
    18:00 +19°C° 0 mm 2 m/s 712 mmHg 75%
    19:00 +18°C° 0 mm 2 m/s 712 mmHg 82%
    20:00 +16°C° 0 mm 1 m/s 712 mmHg 89%
    21:00 +14°C° 0 mm 1 m/s 712 mmHg 96%
    22:00 +14°C° 0 mm 1 m/s 712 mmHg 96%
    23:00 +14°C° 0 mm 1 m/s 712 mmHg 95%
    Arată mai mult